IGO091 VOMM-VOBL

Flight info

Callsign IGO091
Flight time N/A
Altitude 16000
Route MMV W117 BIA
Aircraft A21N/M-SDE2E3FGHIRWXY/LB1

Departure

Time 2026-04-25 18:42
Airport Chennai International Airport (VOMM)

Arrival

Time N/A
Airport Kempegowda International Airport Bengaluru (VOBL)
Time Latitude Longitude Altitude Speed Heading
2026-04-25 18:21 12.98466 80.16599 55 ft 0 kts 159°
2026-04-25 18:29 12.98473 80.16597 51 ft 2 kts 158°
2026-04-25 18:29 12.98488 80.16590 54 ft 2 kts 156°
2026-04-25 18:30 12.98515 80.16559 50 ft 1 kts 71°
2026-04-25 18:30 12.98514 80.16558 50 ft 0 kts 71°
2026-04-25 18:32 12.98518 80.16570 50 ft 5 kts 71°
2026-04-25 18:32 12.98537 80.16624 58 ft 11 kts 70°
2026-04-25 18:33 12.98572 80.16717 54 ft 17 kts 69°
2026-04-25 18:33 12.98630 80.16770 54 ft 8 kts 346°
2026-04-25 18:33 12.98686 80.16745 55 ft 11 kts 336°
2026-04-25 18:33 12.98762 80.16757 55 ft 13 kts 54°
2026-04-25 18:34 12.98797 80.16846 54 ft 14 kts 69°
2026-04-25 18:34 12.98833 80.16943 54 ft 15 kts 69°
2026-04-25 18:34 12.98872 80.17044 58 ft 16 kts 68°
2026-04-25 18:34 12.98912 80.17149 52 ft 16 kts 69°
2026-04-25 18:35 12.98958 80.17253 57 ft 16 kts 57°
2026-04-25 18:35 12.99002 80.17353 54 ft 15 kts 70°
2026-04-25 18:35 12.99041 80.17457 55 ft 16 kts 68°
2026-04-25 18:35 12.99081 80.17563 54 ft 16 kts 69°
2026-04-25 18:36 12.99098 80.17608 55 ft 5 kts 69°
2026-04-25 18:36 12.99113 80.17647 56 ft 6 kts 69°
2026-04-25 18:36 12.99133 80.17689 54 ft 6 kts 45°
2026-04-25 18:36 12.99163 80.17699 58 ft 4 kts
2026-04-25 18:37 12.99189 80.17699 53 ft 4 kts
2026-04-25 18:37 12.99199 80.17704 52 ft 1 kts 54°
2026-04-25 18:37 12.99216 80.17750 58 ft 10 kts 69°
2026-04-25 18:37 12.99241 80.17816 54 ft 10 kts 67°
2026-04-25 18:38 12.99269 80.17887 54 ft 13 kts 69°
2026-04-25 18:38 12.99306 80.17986 55 ft 16 kts 69°
2026-04-25 18:38 12.99326 80.18038 54 ft 0 kts 69°
2026-04-25 18:39 12.99333 80.18056 58 ft 5 kts 68°
2026-04-25 18:39 12.99351 80.18104 55 ft 9 kts 68°
2026-04-25 18:39 12.99362 80.18170 62 ft 10 kts 93°
2026-04-25 18:39 12.99365 80.18250 57 ft 9 kts 66°
2026-04-25 18:40 12.99409 80.18301 60 ft 11 kts 46°
2026-04-25 18:40 12.99466 80.18355 50 ft 12 kts 42°
2026-04-25 18:40 12.99530 80.18410 53 ft 11 kts 26°
2026-04-25 18:40 12.99577 80.18379 53 ft 8 kts 273°
2026-04-25 18:41 12.99558 80.18341 56 ft 5 kts 245°
2026-04-25 18:41 12.99544 80.18303 55 ft 6 kts 249°
2026-04-25 18:41 12.99490 80.18157 53 ft 51 kts 249°
2026-04-25 18:41 12.99270 80.17576 53 ft 120 kts 249°
2026-04-25 18:42 12.98887 80.16579 66 ft 174 kts 246°
2026-04-25 18:42 12.98578 80.15809 335 ft 178 kts 247°
2026-04-25 18:42 12.97973 80.14225 1142 ft 178 kts 254°
2026-04-25 18:42 12.97935 80.12957 1823 ft 182 kts 271°
2026-04-25 18:43 12.98138 80.11594 2310 ft 203 kts 277°
2026-04-25 18:43 12.98436 80.10137 2742 ft 220 kts 281°
2026-04-25 18:43 12.98843 80.08545 3123 ft 243 kts 284°
2026-04-25 18:43 12.99356 80.06837 3648 ft 255 kts 287°
2026-04-25 18:44 12.99917 80.05090 4328 ft 265 kts 287°
2026-04-25 18:44 13.00502 80.03246 4838 ft 279 kts 287°
2026-04-25 18:44 13.01082 80.01319 5516 ft 285 kts 287°
2026-04-25 18:44 13.01638 79.99354 6274 ft 289 kts 286°
2026-04-25 18:45 13.02179 79.97355 6993 ft 293 kts 286°
2026-04-25 18:45 13.02713 79.95319 7712 ft 298 kts 286°
2026-04-25 18:45 13.03251 79.93244 8458 ft 303 kts 287°
2026-04-25 18:45 13.03793 79.91143 9222 ft 307 kts 287°
2026-04-25 18:46 13.04345 79.89007 9962 ft 311 kts 288°
2026-04-25 18:46 13.04912 79.86827 10400 ft 328 kts 287°
2026-04-25 18:46 13.05519 79.84503 10687 ft 347 kts 287°
2026-04-25 18:46 13.06158 79.82054 10984 ft 363 kts 287°
2026-04-25 18:47 13.06818 79.79519 11422 ft 372 kts 287°
2026-04-25 18:47 13.07487 79.76939 11982 ft 376 kts 287°
2026-04-25 18:47 13.08162 79.74331 12588 ft 379 kts 287°
2026-04-25 18:47 13.08838 79.71719 13229 ft 380 kts 287°
2026-04-25 18:48 13.09520 79.69080 13859 ft 382 kts 286°
2026-04-25 18:48 13.10206 79.66433 14410 ft 385 kts 286°
2026-04-25 18:48 13.10888 79.63799 14953 ft 388 kts 286°
2026-04-25 18:48 13.11584 79.61114 15493 ft 390 kts 285°
2026-04-25 18:49 13.12284 79.58413 15819 ft 391 kts 285°
2026-04-25 18:49 13.12983 79.55708 15910 ft 392 kts 285°
2026-04-25 18:49 13.13686 79.52988 15914 ft 393 kts 285°
2026-04-25 18:49 13.14388 79.50274 15913 ft 394 kts 285°
2026-04-25 18:50 13.15083 79.47583 15913 ft 394 kts 285°
2026-04-25 18:50 13.15786 79.44863 15913 ft 394 kts 285°
2026-04-25 18:50 13.16490 79.42137 15920 ft 394 kts 285°
2026-04-25 18:50 13.17190 79.39422 15921 ft 394 kts 285°
2026-04-25 18:51 13.17889 79.36712 15924 ft 393 kts 285°
2026-04-25 18:51 13.18354 79.34911 15925 ft 393 kts 285°
2026-04-25 18:51 13.19290 79.31283 15924 ft 393 kts 285°
2026-04-25 18:51 13.19988 79.28572 15925 ft 393 kts 285°
2026-04-25 18:52 13.20688 79.25854 15938 ft 393 kts 285°
2026-04-25 18:52 13.21387 79.23139 15938 ft 393 kts 285°
2026-04-25 18:52 13.22085 79.20423 15938 ft 393 kts 285°
2026-04-25 18:52 13.22774 79.17743 15937 ft 393 kts 285°
2026-04-25 18:53 13.23473 79.15025 15935 ft 394 kts 285°
2026-04-25 18:53 13.24170 79.12312 15949 ft 394 kts 285°
2026-04-25 18:53 13.24868 79.09595 15952 ft 394 kts 285°
2026-04-25 18:53 13.25566 79.06877 15949 ft 394 kts 285°
2026-04-25 18:54 13.26961 79.01441 15946 ft 393 kts 285°
2026-04-25 18:54 13.27657 78.98728 15946 ft 393 kts 285°
2026-04-25 18:54 13.28355 78.96004 15963 ft 394 kts 285°
2026-04-25 18:55 13.29001 78.93273 15955 ft 394 kts 279°
2026-04-25 18:55 13.29279 78.90472 15961 ft 394 kts 272°
2026-04-25 18:55 13.29228 78.87661 15960 ft 394 kts 265°
2026-04-25 18:55 13.28851 78.84873 15960 ft 394 kts 258°
2026-04-25 18:56 13.28154 78.82157 15975 ft 395 kts 252°
2026-04-25 18:56 13.27141 78.79525 15973 ft 396 kts 245°
2026-04-25 18:56 13.25832 78.77036 15974 ft 395 kts 238°
2026-04-25 18:56 13.24253 78.74734 15981 ft 395 kts 231°
2026-04-25 18:57 13.22410 78.72629 15977 ft 396 kts 224°
2026-04-25 18:57 13.20341 78.70767 15978 ft 396 kts 217°
2026-04-25 18:57 13.18103 78.69186 15975 ft 396 kts 210°
2026-04-25 18:57 13.17300 78.68709 15986 ft 395 kts 208°
2026-04-25 18:58 13.13111 78.66859 15987 ft 394 kts 197°
2026-04-25 18:58 13.07796 78.65498 15989 ft 394 kts 202°
2026-04-25 18:58 13.05506 78.63975 15997 ft 394 kts 224°
2026-04-25 18:59 13.03163 78.59019 16001 ft 394 kts 264°
2026-04-25 18:59 13.03945 78.53548 15996 ft 394 kts 292°
2026-04-25 19:00 13.06481 78.48842 16003 ft 394 kts 305°
2026-04-25 19:00 13.07066 78.47990 16000 ft 394 kts 306°
2026-04-25 19:01 13.10447 78.43563 15992 ft 394 kts 310°
2026-04-25 19:01 13.12212 78.41407 15987 ft 394 kts 311°
2026-04-25 19:01 13.13991 78.39276 16003 ft 394 kts 311°
2026-04-25 19:01 13.15791 78.37143 16000 ft 394 kts 311°